FW3090 Weather Reports


Display with metric or nautical units.
time (UTC)temp
F
wind
direction
speed
MPH
gust
MPH
rain 1hr
in
rain 24hr
in
rain mn
in
humidity
%
barometer
mb
20260502170519 61 311 6.0 12.0 0.00 0.00 0.00 35 1017.3
20260502163950 59 315 7.0 13.0 0.00 0.00 0.00 36 1017.6
20260502163443 58 271 8.0 17.0 0.00 0.00 0.00 34 1017.5
20260502162937 57 301 9.0 17.0 0.00 0.00 0.00 33 1017.6
20260502162432 57 311 8.0 17.0 0.00 0.00 0.00 34 1017.8
20260502161926 58 317 8.0 17.0 0.00 0.00 0.00 36 1017.7
20260502161420 59 263 9.0 14.0 0.00 0.00 0.00 34 1017.7
20260502161135 58 252 7.0 17.0 0.00 0.00 0.00 34 1017.8
20260502160848 58 318 7.0 17.0 0.00 0.00 0.00 37 1018.0
20260502152322 55 298 4.0 11.0 0.00 0.00 0.00 43 1018.1
20260502151822 54 294 4.0 9.0 0.00 0.00 0.00 46 1018.2
20260502151322 54 297 4.0 9.0 0.00 0.00 0.00 48 1018.1
20260502150822 53 253 5.0 9.0 0.00 0.00 0.00 48 1018.2
20260502150322 53 221 5.0 9.0 0.00 0.00 0.00 47 1018.2
20260502130310 38 111 0.0 1.0 0.00 0.00 0.00 81 1019.1
20260502123757 35 111 1.0 2.0 0.00 0.00 0.00 85 1019.2
20260502123251 34 111 0.0 2.0 0.00 0.00 0.00 86 1019.3
20260502122744 34 111 0.0 2.0 0.00 0.00 0.00 86 1019.1
20260502122239 33 24 0.0 0.0 0.00 0.00 0.00 86 1019.2
20260502121732 33 24 0.0 0.0 0.00 0.00 0.00 87 1019.0
20260502121227 32 24 0.0 0.0 0.00 0.00 0.00 87 1019.0
20260502120722 32 24 0.0 0.0 0.00 0.00 0.00 87 1019.0
20260502120214 31 24 0.0 1.0 0.00 0.00 0.00 87 1019.1
20260502115932 31 24 0.0 0.0 0.00 0.00 0.00 86 1019.1
20260502115203 30 24 0.0 0.0 0.00 0.00 0.00 86 1019.0
20260502114657 30 24 0.0 0.0 0.00 0.00 0.00 86 1019.0
20260502114416 30 24 0.0 0.0 0.00 0.00 0.00 85 1018.9
20260502113644 30 24 0.0 0.0 0.00 0.00 0.00 85 1019.0
20260502113143 29 24 0.0 0.0 0.00 0.00 0.00 85 1018.9
20260502112629 29 24 0.0 0.0 0.00 0.00 0.00 85 1018.9
20260502112123 30 24 0.0 0.0 0.00 0.00 0.00 85 1018.8
20260502111616 30 24 0.0 0.0 0.00 0.00 0.00 85 1018.9
20260502111111 30 24 0.0 0.0 0.00 0.00 0.00 84 1018.8
20260502110804 30 24 0.0 0.0 0.00 0.00 0.00 84 1018.8
20260502110755 30 24 0.0 0.0 0.00 0.00 0.00 84 1018.8
20260502105553 30 24 0.0 0.0 0.00 0.00 0.00 84 1018.7
20260502105046 30 24 0.0 0.0 0.00 0.00 0.00 84 1018.7
20260502104540 30 24 0.0 0.0 0.00 0.00 0.00 83 1018.8
20260502104034 30 24 0.0 0.0 0.00 0.00 0.00 83 1018.8
20260502103528 30 24 0.0 0.0 0.00 0.00 0.00 83 1018.8
20260502103022 30 24 0.0 0.0 0.00 0.00 0.00 83 1018.8
20260502102743 30 24 0.0 0.0 0.00 0.00 0.00 83 1018.9
20260502102011 30 24 0.0 0.0 0.00 0.00 0.00 83 1018.9
20260502101505 30 24 0.0 0.0 0.00 0.00 0.00 83 1018.9
20260502101216 30 24 0.0 0.0 0.00 0.00 0.00 83 1018.9
20260502100453 30 24 0.0 0.0 0.00 0.00 0.00 83 1018.9
20260502090846 31 0 0.0 1.0 0.00 0.00 0.00 83 1018.9
20260502090341 31 0 0.0 1.0 0.00 0.00 0.00 83 1018.8
20260502071129 33 0 0.0 0.0 0.00 0.00 0.00 76 1018.8
20260502070623 33 0 0.0 0.0 0.00 0.00 0.00 76 1018.8
20260502070339 33 0 0.0 0.0 0.00 0.00 0.00 76 1018.9
20260502065836 34 0 0.0 0.0 0.00 0.00 0.00 77 1018.9
20260502065105 34 0 0.0 0.0 0.00 0.00 0.00 77 1018.9
20260502064558 34 0 0.0 0.0 0.00 0.00 0.00 77 1019.0
20260502064053 34 0 0.0 0.0 0.00 0.00 0.00 75 1018.9
20260502063552 34 0 0.0 0.0 0.00 0.00 0.00 75 1019.0
20260502063053 34 0 0.0 0.0 0.00 0.00 0.00 75 1018.9
20260502062553 34 0 0.0 0.0 0.00 0.00 0.00 75 1018.9
20260502062051 34 24 0.0 0.0 0.00 0.00 0.00 75 1019.0
20260502061551 35 24 0.0 0.0 0.00 0.00 0.00 75 1019.0
20260502061050 35 24 0.0 0.0 0.00 0.00 0.00 74 1019.0
20260502060813 35 24 0.0 0.0 0.00 0.00 0.00 74 1019.0
20260502060049 35 24 0.0 0.0 0.00 0.00 0.00 74 1018.9
20260502055549 35 24 0.0 1.0 0.00 0.00 0.00 74 1018.9
20260502055049 35 25 0.0 1.0 0.00 0.00 0.00 74 1018.9
20260502054808 35 26 0.0 0.0 0.00 0.00 0.00 73 1018.9
20260502054048 35 32 0.0 0.0 0.00 0.00 0.00 73 1018.9
20260502053548 36 26 0.0 0.0 0.00 0.00 0.00 73 1019.0
20260502053049 36 0 0.0 0.0 0.00 0.00 0.00 73 1018.9
20260502052548 36 0 0.0 0.0 0.00 0.00 0.00 74 1018.8
20260502052049 36 0 0.0 0.0 0.00 0.00 0.00 74 1018.8
20260502051549 36 0 0.0 0.0 0.00 0.00 0.00 71 1018.8
20260502051049 36 24 0.0 0.0 0.00 0.00 0.00 72 1018.9
20260502050549 36 24 0.0 0.0 0.00 0.00 0.00 71 1018.9
20260502050315 36 24 0.0 0.0 0.00 0.00 0.00 69 1018.7
20260502045541 37 24 0.0 0.0 0.00 0.00 0.00 69 1018.7
20260502045035 37 24 0.0 0.0 0.00 0.00 0.00 69 1018.6
20260502044529 37 24 0.0 0.0 0.00 0.00 0.00 69 1018.7
20260502044022 37 24 0.0 1.0 0.00 0.00 0.00 70 1018.7
20260502043516 37 24 0.0 1.0 0.00 0.00 0.00 70 1018.7
20260502043010 37 24 0.0 1.0 0.00 0.00 0.00 71 1018.6
20260502042504 37 24 0.0 1.0 0.00 0.00 0.00 70 1018.7
20260502042000 38 24 0.0 1.0 0.00 0.00 0.00 68 1018.7
20260502041452 38 24 0.0 0.0 0.00 0.00 0.00 69 1018.7
20260502040947 38 24 0.0 0.0 0.00 0.00 0.00 69 1018.7
20260502040441 38 24 0.0 2.0 0.00 0.00 0.00 69 1018.6
20260502040424 38 24 0.0 2.0 0.00 0.00 0.00 69 1018.7
20260502035429 38 24 0.0 2.0 0.00 0.00 0.00 69 1018.6
20260502034923 39 24 0.0 2.0 0.00 0.00 0.00 67 1018.6
20260502034417 39 24 0.0 0.0 0.00 0.00 0.00 66 1018.6
20260502033911 39 24 0.0 0.0 0.00 0.00 0.00 67 1018.5
20260502033406 39 24 0.0 0.0 0.00 0.00 0.00 64 1018.6
20260502032858 39 24 0.0 0.0 0.00 0.00 0.00 64 1018.6
20260502032352 39 24 0.0 0.0 0.00 0.00 0.00 65 1018.6
20260502031847 39 24 0.0 1.0 0.00 0.00 0.00 65 1018.7
20260502031340 39 24 0.0 1.0 0.00 0.00 0.00 65 1018.6
20260502030834 39 24 0.0 0.0 0.00 0.00 0.00 64 1018.6
20260502030329 39 24 0.0 0.0 0.00 0.00 0.00 64 1018.6
20260502025822 39 24 0.0 0.0 0.00 0.00 0.00 66 1018.5
20260502025317 40 24 0.0 0.0 0.00 0.00 0.00 67 1018.5
20260502024810 40 24 0.0 0.0 0.00 0.00 0.00 69 1018.5
20260502024526 40 24 0.0 0.0 0.00 0.00 0.00 66 1018.5
20260502024032 40 24 0.0 0.0 0.00 0.00 0.00 66 1018.4
20260502023303 41 24 0.0 0.0 0.00 0.00 0.00 63 1018.5
20260502022801 41 24 0.0 1.0 0.00 0.00 0.00 62 1018.5
20260502022300 41 24 0.0 1.0 0.00 0.00 0.00 68 1018.5
20260502021800 42 24 0.0 1.0 0.00 0.00 0.00 63 1018.5
20260502021521 42 24 0.0 1.0 0.00 0.00 0.00 59 1018.5
20260502020757 43 24 0.0 1.0 0.00 0.00 0.00 54 1018.4
20260502020255 43 24 0.0 2.0 0.00 0.00 0.00 54 1018.4
20260502015753 43 24 0.0 2.0 0.00 0.00 0.00 53 1018.3
20260502015253 43 24 0.0 2.0 0.00 0.00 0.00 54 1018.3
20260502014753 44 24 0.0 2.0 0.00 0.00 0.00 52 1018.3
20260502014516 44 24 0.0 0.0 0.00 0.00 0.00 51 1018.2
20260502014238 44 24 0.0 0.0 0.00 0.00 0.00 52 1018.3
20260502013252 44 24 0.0 0.0 0.00 0.00 0.00 52 1018.2
20260502013010 45 24 0.0 1.0 0.00 0.00 0.00 53 1018.1
20260502012510 46 24 0.0 1.0 0.00 0.00 0.00 53 1018.1
20260502011749 47 24 0.0 1.0 0.00 0.00 0.00 51 1018.1
20260502011249 47 24 0.0 2.0 0.00 0.00 0.00 46 1018.1
20260502010749 48 24 0.0 2.0 0.00 0.00 0.00 45 1018.0
20260502010248 48 24 0.0 2.0 0.00 0.00 0.00 42 1017.8
20260502005749 49 24 1.0 2.0 0.00 0.00 0.00 41 1017.9
20260502005249 49 24 1.0 2.0 0.00 0.00 0.00 43 1017.9
20260502004749 49 24 1.0 3.0 0.00 0.00 0.00 42 1017.9
20260502004249 50 24 1.0 3.0 0.00 0.00 0.00 40 1017.8
20260502003749 50 24 1.0 3.0 0.00 0.00 0.00 41 1017.8
20260502003249 50 24 2.0 6.0 0.00 0.00 0.00 39 1017.7
20260502002750 50 24 2.0 6.0 0.00 0.00 0.00 38 1017.7
20260502002246 50 88 2.0 4.0 0.00 0.00 0.00 38 1017.7
20260502001746 50 26 2.0 4.0 0.00 0.00 0.00 39 1017.6
20260502001508 51 80 2.0 4.0 0.00 0.00 0.00 37 1017.7
20260502001006 51 20 1.0 3.0 0.00 0.00 0.00 38 1017.7
20260502000247 51 331 1.0 3.0 0.00 0.00 0.00 39 1017.6
20260502000228 51 313 2.0 4.0 0.00 0.00 0.00 37 1017.6
20260501235233 51 309 2.0 6.0 0.00 0.00 0.00 37 1017.6
20260501234728 51 316 2.0 9.0 0.00 0.00 0.00 37 1017.6
20260501234221 51 9 2.0 9.0 0.00 0.00 0.00 33 1017.4
20260501233716 51 303 2.0 9.0 0.00 0.00 0.00 37 1017.5
20260501233209 51 279 2.0 9.0 0.00 0.00 0.00 35 1017.5
20260501232704 51 342 2.0 6.0 0.00 0.00 0.00 37 1017.5
20260501232158 51 44 2.0 9.0 0.00 0.00 0.00 36 1017.6
20260501231656 52 48 2.0 9.0 0.00 0.00 0.00 35 1017.5
20260501231157 52 115 2.0 6.0 0.00 0.00 0.00 36 1017.5
20260501230654 51 291 1.0 6.0 0.00 0.00 0.00 35 1017.4
20260501230154 51 28 1.0 5.0 0.00 0.00 0.00 37 1017.5
20260501225654 51 30 2.0 5.0 0.00 0.00 0.00 37 1017.5
20260501225154 51 333 3.0 7.0 0.00 0.00 0.00 37 1017.5
20260501224655 52 44 4.0 10.0 0.00 0.00 0.00 35 1017.5
20260501224411 53 334 4.0 10.0 0.00 0.00 0.00 35 1017.5
20260501223916 53 313 4.0 13.0 0.00 0.00 0.00 35 1017.3
20260501223418 53 285 5.0 13.0 0.00 0.00 0.00 33 1017.3
20260501222915 54 288 4.0 9.0 0.00 0.00 0.00 32 1017.3
20260501222153 54 0 4.0 10.0 0.00 0.00 0.00 36 1017.3
20260501221653 54 304 4.0 10.0 0.00 0.00 0.00 34 1017.2
20260501221152 53 23 3.0 8.0 0.00 0.00 0.00 33 1017.2
20260501220650 54 311 4.0 10.0 0.00 0.00 0.00 32 1017.1
20260501220411 55 355 4.0 10.0 0.00 0.00 0.00 33 1017.2
20260501215649 55 304 4.0 10.0 0.00 0.00 0.00 34 1017.2
20260501215147 54 29 4.0 9.0 0.00 0.00 0.00 34 1017.1
20260501214843 54 294 4.0 9.0 0.00 0.00 0.00 33 1017.2
20260501214835 54 349 3.0 8.0 0.00 0.00 0.00 36 1017.2
20260501213630 54 34 4.0 9.0 0.00 0.00 0.00 35 1017.2
20260501213123 54 25 5.0 10.0 0.00 0.00 0.00 34 1017.4
20260501212618 54 350 5.0 11.0 0.00 0.00 0.00 31 1017.3
20260501212111 55 316 6.0 18.0 0.00 0.00 0.00 31 1017.2
20260501211605 55 323 5.0 18.0 0.00 0.00 0.00 32 1017.0
20260501211100 54 294 3.0 8.0 0.00 0.00 0.00 33 1017.1
20260501210554 55 321 4.0 13.0 0.00 0.00 0.00 34 1017.2
20260501210047 55 22 5.0 13.0 0.00 0.00 0.00 31 1017.2
20260501205542 55 309 5.0 10.0 0.00 0.00 0.00 37 1017.2
20260501205035 55 245 5.0 11.0 0.00 0.00 0.00 32 1017.2
20260501204530 55 284 4.0 11.0 0.00 0.00 0.00 32 1017.3
20260501204025 54 0 3.0 10.0 0.00 0.00 0.00 35 1017.3
20260501203741 55 21 4.0 14.0 0.00 0.00 0.00 33 1017.4
20260501203232 55 355 3.0 14.0 0.00 0.00 0.00 34 1017.4
20260501202505 55 83 2.0 8.0 0.00 0.00 0.00 35 1017.4
20260501202000 56 55 4.0 8.0 0.00 0.00 0.00 35 1017.5
20260501201453 55 347 4.0 9.0 0.00 0.00 0.00 32 1017.4
20260501201218 55 331 5.0 9.0 0.00 0.00 0.00 32 1017.4
20260501200441 55 80 4.0 9.0 0.00 0.00 0.00 32 1017.4
20260501195935 56 40 3.0 10.0 0.00 0.00 0.00 34 1017.4
20260501195430 55 298 4.0 10.0 0.00 0.00 0.00 35 1017.5
20260501194923 54 266 4.0 10.0 0.00 0.00 0.00 33 1017.5
20260501194417 54 340 4.0 8.0 0.00 0.00 0.00 37 1017.5
20260501193912 54 27 3.0 8.0 0.00 0.00 0.00 35 1017.6
20260501193406 53 57 3.0 8.0 0.00 0.00 0.00 35 1017.6
20260501192859 54 11 3.0 10.0 0.00 0.00 0.00 39 1017.5
20260501192353 52 82 4.0 10.0 0.00 0.00 0.00 39 1017.5
20260501191848 51 43 4.0 10.0 0.00 0.00 0.00 38 1017.6
20260501191342 53 25 3.0 9.0 0.00 0.00 0.00 36 1017.6
20260501190836 53 273 3.0 8.0 0.00 0.00 0.00 38 1017.5
20260501190330 54 26 3.0 8.0 0.00 0.00 0.00 40 1017.6
20260501185823 54 60 3.0 9.0 0.00 0.00 0.00 38 1017.6
20260501185318 54 9 5.0 12.0 0.00 0.00 0.00 38 1017.5
20260501184811 54 328 5.0 12.0 0.00 0.00 0.00 37 1017.5
20260501184306 53 13 4.0 12.0 0.00 0.00 0.00 34 1017.5
20260501183759 54 49 4.0 9.0 0.00 0.00 0.00 40 1017.5
20260501183253 52 334 4.0 10.0 0.00 0.00 0.00 39 1017.5
20260501182747 52 87 3.0 10.0 0.00 0.00 0.00 34 1017.6
20260501182506 50 67 4.0 10.0 0.00 0.00 0.00 38 1017.5
20260501181735 51 67 4.0 10.0 0.00 0.00 0.00 35 1017.6
20260501181230 53 5 4.0 13.0 0.00 0.00 0.00 38 1017.5
20260501180723 53 9 3.0 13.0 0.00 0.00 0.00 38 1017.4
20260501180220 53 55 4.0 12.0 0.00 0.00 0.00 35 1017.6